www.pogodaiklimat.ru

Погода и климат >> Архив погоды >> Ирак >> Басра аэропорт


ПОГОДА в Басре аэропорт

  • Прогноз погоды в Басре аэропорт
  • Монитор погоды в Басре аэропорт

АРХИВ ПОГОДЫ в Басре аэропорт

Время (UTC), дата Ветер
(напр.,м/с)
 
Видим.   Явления Облачность Т
(С)
Тd
(С)
f
(%)
Тe
(С)
Тes
(С)
Комфортность P
(гПа)
Po
(гПа)
Тmin
(С)
Tmax
(С)
R
(мм)
R24
(мм)
S
(см)
00 18.06 штиль 0 10 км ясно +33.0 +16.6 38 +36 +36 очень
душно
1003.0 1002.7
03 18.06 СЗ 2 10 км ясно +31.5 +16.0 39 +34 +36 душно 1003.7 1003.4
06 18.06 СЗ 5 10 км ясно +41.3 +9.1 15 +40 +47 очень
жарко
1004.4 1004.1 +30.0
09 18.06 СЗ 10 10 км ясно +44.8 +5.7 10 +42 +43 опасность
перегрева
1003.8 1003.5
12 18.06 СЗ 8 10 км ясно +45.7 +6.5 10 +43 +45 опасность
перегрева
1002.3 1002.0
15 18.06 З 10 10 км ясно +42.7 +8.7 13 +41 +41 опасность
перегрева
1001.8 1001.5
18 18.06 З 6 10 км ясно +36.5 +15.0 28 +38 +38 очень
душно
1002.5 1002.2 +46.0
21 18.06 СЗ 8 10 км ясно +34.4 +14.0 29 +35 +35 очень
жарко
1002.0 1001.7
00 19.06 З 8 10 км ясно +32.5 +12.5 30 +33 +33 жарко 1000.8 1000.5
03 19.06 З 3 10 км ясно +29.9 +14.8 40 +32 +33 жарко 1001.5 1001.2
06 19.06 СЗ 9 10 км ясно +38.2 +11.9 21 +38 +39 очень
жарко
1002.0 1001.7 +29.0
09 19.06 З 13 10 км ясно +42.7 +5.8 11 +40 +40 очень
жарко
1001.7 1001.4
12 19.06 З 17 10 км ясно +42.6 +5.9 11 +40 +40 очень
жарко
1000.8 1000.5
15 19.06 З 9 8000 м пыльный позёмок ясно +39.9 +8.5 15 +38 +38 очень
жарко
1000.5 1000.2
18 19.06 З 6 10 км ясно +34.2 +13.1 28 +35 +35 очень
жарко
1001.4 1001.1 +43.3
03 20.06 З 5 10 км ясно +28.2 +15.2 45 +31 +32 душно 1001.0 1000.7
06 20.06 З 12 10 км ясно +37.7 +11.5 21 +37 +37 очень
жарко
1001.4 1001.1 +27.4
09 20.06 З 11 10 км ясно +41.3 +9.2 15 +40 +40 очень
жарко
1001.1 1000.8
12 20.06 З 13 10 км ясно +42.5 +6.9 12 +40 +40 очень
жарко
999.9 999.6
15 20.06 З 10 10 км ясно +40.4 +10.4 17 +39 +39 очень
жарко
999.8 999.5
18 20.06 З 5 10 км ясно +34.8 +14.6 30 +36 +36 душно 1001.3 1001.0 +42.7
21 20.06 З 5 10 км ясно +31.6 +15.4 38 +34 +34 душно 1001.4 1001.1
00 21.06 З 4 10 км ясно +29.3 +15.2 42 +32 +32 душно 1001.0 1000.7
03 21.06 З 5 10 км ясно +28.8 +13.6 39 +30 +31 жарко 1002.3 1002.0
06 21.06 З 8 10 км ясно +37.4 +12.2 22 +37 +39 очень
жарко
1002.8 1002.5 +27.9
09 21.06 З 10 10 км ясно +41.4 +6.3 12 +39 +40 очень
жарко
1001.8 1001.5
12 21.06 З 10 10 км {снег} ясно +43.0 +5.9 11
15 21.06 З 7 10 км ясно +40.7 +7.1 13 +38 +38 очень
жарко
1000.3 1000.0
18 21.06 З 6 10 км ясно +34.8 +12.9 27 +35 +35 очень
жарко
1001.2 1000.9 +43.3
21 21.06 З 5 10 км ясно +31.4 +15.7 39 +34 +34 душно 1001.2 1000.9
00 22.06 З 4 10 км ясно +28.5 +14.9 44 +31 +31 душно 1000.8 1000.5
06 22.06 З 8 10 км ясно +37.3 +10.5 20 +36 +39 очень
жарко
1002.3 1002.0 +27.0
09 22.06 З 7 10 км ясно +42.2 +8.5 13 +40 +46 очень
жарко
1002.2 1001.9
12 22.06 З 7 10 км ясно +43.4 +8.5 13 +42 +45 опасность
перегрева
1001.4 1001.1
15 22.06 З 7 10 км ясно +42.0 +6.7 12 +39 +40 очень
жарко
1001.0 1000.7
18 22.06 З 5 10 км ясно +36.1 +9.7 20 +35 +35 очень
жарко
1001.6 1001.3 +44.0
00 23.06 З 3 10 км ясно +29.5 +15.6 43 +32 +32 душно 1001.5 1001.2
03 23.06 З 2 10 км ясно +28.5 +14.9 44 +31 +32 душно 1002.7 1002.4
06 23.06 СЗ 2 10 км ясно +35.7 +14.6 28 +37 +51 опасность
солнечного
удара
1003.5 1003.2 +27.3
09 23.06 СЗ 6 10 км ясно +44.1 +4.6 9 +41 +50 опасность
перегрева
1003.2 1002.9
12 23.06 СЗ 3 10 км ясно +45.3 +3.1 8 +42 +52 опасность
перегрева
1002.1 1001.8
15 23.06 СЗ 4 10 км ясно +44.0 +2.6 8 +41 +41 опасность
перегрева
1001.4 1001.1
18 23.06 СЗ 3 10 км ясно +37.6 +6.7 15 +35 +35 очень
жарко
1002.3 1002.0 +45.7
21 23.06 З 4 10 км ясно +34.1 +18.0 39 +38 +38 очень
душно
1002.3 1002.0
00 24.06 СЗ 3 10 км ясно +31.5 +17.9 44 +36 +36 очень
душно
1001.9 1001.6
06 24.06 СЗ 5 10 км ясно +39.6 +11.6 19 +39 +46 очень
жарко
1003.4 1003.1 +28.1
09 24.06 СЗ 5 10 км ясно +45.2 +4.3 9 +42 +54 опасность
перегрева
1003.0 1002.7
12 24.06 СЗ 4 10 км ясно +46.6 +4.6 8 +44 +52 опасность
перегрева
1001.6 1001.3
15 24.06 СЗ 3 10 км ясно +44.5 +4.6 9 +41 +42 опасность
перегрева
1001.3 1001.0

 

Местоположение метеостанции Басра аэропорт (Ирак): широта 30.52 долгота 47.78 высота над уровнем моря 3 м.

В архиве по умолчанию представлена погода в Басре аэропорт за последнюю неделю. Архивные данные за месяц целиком и за предыдущие месяцы, начиная с января 2011 года, Вы можете получить, выбрав интересующий диапазон дат из раскрывающегося списка и нажав кнопку "Ввод!".


*Определитесь, кто Вы:
робот инопланетянин человек

Внимание! Время в таблицах - всемирное. Для получения местного времени необходимо прибавить поправку, которая равна 3 ч.

Смотрите также архив погоды в соседних городах и на ближайших метеорологических станциях:

Погода в Басре (Ирак) (6 км)
Погода в Абадане (Иран) (48 км)
Погода в Абдали (Кувейт) (50 км)
Погода на Метеостанции Sabriyah (Кувейт) (86 км)
Погода на Метеостанции Mintribah (Кувейт) (87 км)
Погода в Эль-Фао (Ирак) (92 км)
Погода на Бубияне (Кувейт) (101 км)
Погода на Метеостанции Jal Aliyah (Кувейт) (103 км)
Погода в Ахвазе (Иран) (124 км)
Погода Остров Файлака (Кувейт) (126 км)

Пояснения к столбцам:

Ветер - указаны скорость ветра в м/с - средняя за 10 мин, порывы в срок и между сроками (в фигурных скобках) и направление, откуда дует ветер: С - северный, СВ - северо-восточный, В - восточный, ЮВ - юго-восточный, Ю - южный, ЮЗ - юго-западный, З - западный, СЗ - северо-западный.
Видимость - горизонтальная дальность видимости в метрах или километрах. При видимости от 1 до 10 км при отсутствии осадков обычно наблюдается дымка, при ухудшении видимости до 1 км и менее - туман. В сухую погоду видимость может ухудшаться дымом, пылью или мглою.
Явления - указаны атмосферные явления, наблюдавшиеся в срок или в последний час перед сроком; фигурными скобками обозначены явления, наблюдавшиеся между сроками (за 1-3 часа до срока); квадратными скобками обозначены град или гололедные отложения с указанием их диаметра в мм.
Облачность - указаны через наклонную черту общая и нижняя облачность в баллах и высота нижней границы облаков в метрах; квадратными скобками обозначены формы облаков: Ci - перистые, Cs - перисто-слоистые, Cc - перисто-кучевые, Ac - высококучевые, As - высокослоистые, Sc - слоисто-кучевые, Ns - слоисто-дождевые, Cu - кучевые, Cb - кучево-дождевые. Подробнее классификацию облаков см. в Атласе облаков (PDF).
T - Температура воздуха - температура, измеренная на высоте 2 м над землей.
Td - Температура точки росы - температура, при понижении до которой содержащийся в воздухе водяной пар достигнет насыщения.
f - Относительная влажность воздуха - влажноcть воздуха, измеренная на высоте 2 м над землей.
Te - Эффективная температура - температура, которую ощущает одетый по сезону человек в тени. Характеристика душности погоды. При расчете учитывается влияние влажности воздуха и скорости ветра на теплоощущения человека.
Tes - Эффективная температура на солнце - температура, которую ощущает человек, с поправкой на солнечный нагрев. Характеристика знойности погоды. Зависит от высоты солнца над горизонтом, облачности и скорости ветра. Ночью, в пасмурную погоду, а также при ветре 12 м/с и более поправка равна нулю.
P - Атмосферное давление - приведенное к уровню моря атмосферное давление.
Po - Атмосферное давление - измеренное на уровне метеостанции атмосферное давление.
Tmin - Минимальная температура - минимум температуры воздуха на высоте 2 м над землей.
Tmax - Максимальная температура - максимум температуры воздуха на высоте 2 м над землей.
R - Количество осадков - Количество выпавших осадков за период времени, мм. При наведении курсора мыши на число - период времени, за который выпало указанное количество осадков.
R24 - Количество осадков - Количество выпавших осадков за 24 часа, мм.
S - Снежный покров - Высота снежного покрова, см. При наведении курсора мыши на число - состояние снежного покрова и степень покрытия местности в баллах.